| time (UTC) | temp C | wind direction | speed KPH | gust KPH | rain 1hr cm | rain 24hr cm | rain mn cm | humidity % | barometer mb |
| 20260905050909 | 23 | 286 | 0.0 | 0.0 | 0.00 | 0.00 | 0.00 | 82 | 1014.6 |
| 20260905050405 | 23 | 291 | 0.0 | 0.0 | 0.00 | 0.00 | 0.00 | 81 | 1014.5 |
| 20260905045900 | 23 | 278 | 0.0 | 0.0 | 0.00 | 0.00 | 0.00 | 81 | 1014.6 |
| 20260905045355 | 23 | 287 | 0.0 | 0.0 | 0.00 | 0.00 | 0.00 | 81 | 1014.6 |
| 20260905044850 | 23 | 281 | 0.0 | 0.0 | 0.00 | 0.00 | 0.00 | 80 | 1014.4 |
| 20260905044346 | 24 | 257 | 0.0 | 0.0 | 0.00 | 0.00 | 0.00 | 80 | 1014.5 |
| 20260905043844 | 24 | 172 | 0.0 | 0.0 | 0.00 | 0.00 | 0.00 | 80 | 1014.5 |
| 20260905043339 | 23 | 298 | 0.0 | 0.0 | 0.00 | 0.00 | 0.00 | 80 | 1014.6 |
| 20260905042834 | 23 | 244 | 0.0 | 0.0 | 0.00 | 0.00 | 0.00 | 80 | 1014.6 |
| 20260905042334 | 24 | 243 | 0.0 | 0.0 | 0.00 | 0.00 | 0.00 | 80 | 1014.5 |
| 20260905041829 | 24 | 281 | 0.0 | 0.0 | 0.00 | 0.00 | 0.00 | 80 | 1014.6 |
| 20260905041326 | 24 | 276 | 0.0 | 0.0 | 0.00 | 0.00 | 0.00 | 80 | 1014.5 |
| 20260905040826 | 24 | 249 | 0.0 | 0.0 | 0.00 | 0.00 | 0.00 | 79 | 1014.6 |
| 20260905040324 | 24 | 290 | 0.0 | 0.0 | 0.00 | 0.00 | 0.00 | 79 | 1014.8 |
| 20260905035824 | 24 | 291 | 0.0 | 0.0 | 0.00 | 0.00 | 0.00 | 79 | 1014.4 |
| 20260905035320 | 24 | 267 | 0.0 | 0.0 | 0.00 | 0.00 | 0.00 | 78 | 1014.4 |
| 20260905034816 | 25 | 243 | 0.0 | 0.0 | 0.00 | 0.00 | 0.00 | 78 | 1014.4 |
| 20260905034312 | 25 | 274 | 0.0 | 0.0 | 0.00 | 0.00 | 0.00 | 77 | 1014.4 |
| 20260905033810 | 25 | 273 | 0.0 | 0.0 | 0.00 | 0.00 | 0.00 | 77 | 1014.5 |
| 20260905033306 | 25 | 288 | 0.0 | 0.0 | 0.00 | 0.00 | 0.00 | 76 | 1014.2 |
| 20260905032805 | 25 | 268 | 0.0 | 0.0 | 0.00 | 0.00 | 0.00 | 76 | 1014.2 |
| 20260905032301 | 25 | 270 | 0.0 | 0.0 | 0.00 | 0.00 | 0.00 | 76 | 1014.2 |
| 20260905031755 | 25 | 262 | 0.0 | 0.0 | 0.00 | 0.00 | 0.00 | 76 | 1014.3 |
| 20260905031252 | 25 | 263 | 0.0 | 0.0 | 0.00 | 0.00 | 0.00 | 75 | 1014.1 |
| 20260905030747 | 25 | 259 | 0.0 | 0.0 | 0.00 | 0.00 | 0.00 | 75 | 1014.1 |
| 20260905030242 | 25 | 210 | 0.0 | 0.0 | 0.00 | 0.00 | 0.00 | 74 | 1014.1 |
| 20260905025742 | 25 | 267 | 0.0 | 0.0 | 0.00 | 0.00 | 0.00 | 74 | 1014.0 |
| 20260905025237 | 25 | 269 | 0.0 | 0.0 | 0.00 | 0.00 | 0.00 | 74 | 1013.9 |
| 20260905024733 | 25 | 275 | 0.0 | 0.0 | 0.00 | 0.00 | 0.00 | 73 | 1013.9 |
| 20260905024229 | 25 | 275 | 0.0 | 0.0 | 0.00 | 0.00 | 0.00 | 73 | 1013.8 |
| 20260905023729 | 26 | 274 | 0.0 | 0.0 | 0.00 | 0.00 | 0.00 | 73 | 1013.9 |
| 20260905023224 | 26 | 274 | 0.0 | 0.0 | 0.00 | 0.00 | 0.00 | 72 | 1013.6 |
| 20260905022723 | 25 | 333 | 0.0 | 0.0 | 0.00 | 0.00 | 0.00 | 73 | 1013.7 |
| 20260905022219 | 26 | 318 | 0.0 | 0.0 | 0.00 | 0.00 | 0.00 | 72 | 1013.7 |
| 20260905021719 | 26 | 275 | 0.0 | 0.0 | 0.00 | 0.00 | 0.00 | 72 | 1013.6 |
| 20260905021214 | 26 | 270 | 0.0 | 0.0 | 0.00 | 0.00 | 0.00 | 71 | 1013.3 |
| 20260905020708 | 26 | 270 | 0.0 | 0.0 | 0.00 | 0.00 | 0.00 | 70 | 1013.4 |
| 20260905020204 | 26 | 279 | 0.0 | 0.0 | 0.00 | 0.00 | 0.00 | 70 | 1013.3 |
| 20260905015703 | 26 | 262 | 0.0 | 0.0 | 0.00 | 0.00 | 0.00 | 68 | 1013.1 |
| 20260905015202 | 26 | 284 | 0.0 | 0.0 | 0.00 | 0.00 | 0.00 | 68 | 1012.8 |
| 20260905014701 | 27 | 286 | 0.0 | 0.0 | 0.00 | 0.00 | 0.00 | 68 | 1012.8 |
| 20260905014156 | 27 | 268 | 0.0 | 0.0 | 0.00 | 0.00 | 0.00 | 67 | 1013.1 |
| 20260905013653 | 27 | 267 | 0.0 | 0.0 | 0.00 | 0.00 | 0.00 | 67 | 1013.0 |
| 20260905013149 | 27 | 232 | 0.0 | 0.0 | 0.00 | 0.00 | 0.00 | 66 | 1012.6 |
| 20260905012644 | 27 | 281 | 0.0 | 0.0 | 0.00 | 0.00 | 0.00 | 65 | 1012.7 |
| 20260905012140 | 28 | 218 | 0.0 | 0.0 | 0.00 | 0.00 | 0.00 | 65 | 1012.7 |
| 20260905011636 | 28 | 282 | 0.0 | 0.0 | 0.00 | 0.00 | 0.00 | 64 | 1012.7 |
| 20260905011131 | 28 | 273 | 0.0 | 0.0 | 0.00 | 0.00 | 0.00 | 63 | 1012.7 |
| 20260905010626 | 28 | 296 | 0.0 | 0.0 | 0.00 | 0.00 | 0.00 | 60 | 1012.6 |
| 20260905010122 | 28 | 272 | 0.0 | 0.0 | 0.00 | 0.00 | 0.00 | 61 | 1012.7 |
| 20260905005618 | 29 | 243 | 0.0 | 0.0 | 0.00 | 0.00 | 0.00 | 59 | 1012.4 |
| 20260905005114 | 30 | 290 | 0.0 | 0.0 | 0.00 | 0.00 | 0.00 | 58 | 1012.4 |
| 20260905004613 | 30 | 276 | 0.0 | 0.0 | 0.00 | 0.00 | 0.00 | 57 | 1012.7 |
| 20260905004108 | 31 | 240 | 0.0 | 0.0 | 0.00 | 0.00 | 0.00 | 55 | 1012.3 |
| 20260905003604 | 31 | 291 | 0.0 | 0.0 | 0.00 | 0.00 | 0.00 | 54 | 1012.5 |
| 20260905003100 | 32 | 287 | 0.0 | 0.0 | 0.00 | 0.00 | 0.00 | 48 | 1012.3 |
| 20260905002555 | 32 | 304 | 1.6 | 1.6 | 0.00 | 0.00 | 0.00 | 47 | 1012.2 |
| 20260905002050 | 33 | 231 | 1.6 | 1.6 | 0.00 | 0.00 | 0.00 | 46 | 1012.5 |
| 20260905001545 | 34 | 218 | 1.6 | 1.6 | 0.00 | 0.00 | 0.00 | 43 | 1012.4 |
| 20260905001044 | 35 | 251 | 0.0 | 0.0 | 0.00 | 0.00 | 0.00 | 40 | 1012.3 |
| 20260905000539 | 35 | 235 | 0.0 | 0.0 | 0.00 | 0.00 | 0.00 | 40 | 1012.4 |
| 20260905000036 | 35 | 162 | 3.2 | 4.8 | 0.00 | 0.00 | 0.00 | 39 | 1012.4 |
| 20260904235530 | 35 | 65 | 3.2 | 4.8 | 0.00 | 0.00 | 0.00 | 41 | 1012.4 |
| 20260904235030 | 36 | 212 | 3.2 | 4.8 | 0.00 | 0.00 | 0.00 | 38 | 1012.4 |
| 20260904234530 | 36 | 182 | 1.6 | 1.6 | 0.00 | 0.00 | 0.00 | 39 | 1012.3 |
| 20260904234026 | 36 | 191 | 4.8 | 6.4 | 0.00 | 0.00 | 0.00 | 38 | 1012.3 |
| 20260904233521 | 36 | 99 | 3.2 | 4.8 | 0.00 | 0.00 | 0.00 | 39 | 1012.2 |
| 20260904233017 | 36 | 229 | 3.2 | 4.8 | 0.00 | 0.00 | 0.00 | 37 | 1012.1 |
| 20260904232514 | 36 | 184 | 4.8 | 6.4 | 0.00 | 0.00 | 0.00 | 37 | 1012.4 |
| 20260904232010 | 36 | 120 | 1.6 | 4.8 | 0.00 | 0.00 | 0.00 | 36 | 1012.4 |
| 20260904231506 | 36 | 277 | 1.6 | 4.8 | 0.00 | 0.00 | 0.00 | 36 | 1012.3 |
| 20260904231000 | 36 | 156 | 4.8 | 6.4 | 0.00 | 0.00 | 0.00 | 36 | 1012.3 |
| 20260904230500 | 36 | 150 | 3.2 | 4.8 | 0.00 | 0.00 | 0.00 | 37 | 1012.4 |
| 20260904225955 | 37 | 84 | 3.2 | 4.8 | 0.00 | 0.00 | 0.00 | 37 | 1012.3 |
| 20260904225453 | 36 | 55 | 3.2 | 4.8 | 0.00 | 0.00 | 0.00 | 37 | 1012.2 |
| 20260904224952 | 37 | 64 | 4.8 | 6.4 | 0.00 | 0.00 | 0.00 | 36 | 1012.4 |
| 20260904224448 | 37 | 172 | 4.8 | 6.4 | 0.00 | 0.00 | 0.00 | 36 | 1012.5 |
| 20260904223948 | 37 | 201 | 4.8 | 6.4 | 0.00 | 0.00 | 0.00 | 35 | 1012.2 |
| 20260904223447 | 37 | 96 | 9.7 | 12.9 | 0.00 | 0.00 | 0.00 | 35 | 1012.4 |
| 20260904222943 | 37 | 200 | 3.2 | 6.4 | 0.00 | 0.00 | 0.00 | 35 | 1012.4 |
| 20260904222438 | 37 | 271 | 1.6 | 1.6 | 0.00 | 0.00 | 0.00 | 34 | 1012.5 |
| 20260904221938 | 37 | 196 | 6.4 | 8.0 | 0.00 | 0.00 | 0.00 | 35 | 1012.6 |
| 20260904221432 | 37 | 191 | 12.9 | 17.7 | 0.00 | 0.00 | 0.00 | 35 | 1012.5 |
| 20260904220928 | 37 | 240 | 4.8 | 6.4 | 0.00 | 0.00 | 0.00 | 34 | 1012.6 |
| 20260904220428 | 37 | 270 | 1.6 | 1.6 | 0.00 | 0.00 | 0.00 | 36 | 1012.6 |
| 20260904215923 | 37 | 260 | 3.2 | 4.8 | 0.00 | 0.00 | 0.00 | 36 | 1012.7 |
| 20260904215418 | 37 | 188 | 6.4 | 11.3 | 0.00 | 0.00 | 0.00 | 35 | 1012.6 |
| 20260904214914 | 37 | 215 | 3.2 | 4.8 | 0.00 | 0.00 | 0.00 | 35 | 1012.8 |
| 20260904214409 | 37 | 160 | 3.2 | 6.4 | 0.00 | 0.00 | 0.00 | 35 | 1012.6 |
| 20260904213909 | 37 | 96 | 6.4 | 8.0 | 0.00 | 0.00 | 0.00 | 34 | 1013.0 |
| 20260904213403 | 38 | 85 | 8.0 | 12.9 | 0.00 | 0.00 | 0.00 | 34 | 1012.8 |
| 20260904212859 | 37 | 253 | 4.8 | 6.4 | 0.00 | 0.00 | 0.00 | 34 | 1013.0 |
| 20260904212358 | 37 | 68 | 4.8 | 8.0 | 0.00 | 0.00 | 0.00 | 36 | 1013.1 |
| 20260904211854 | 36 | 229 | 1.6 | 1.6 | 0.00 | 0.00 | 0.00 | 37 | 1013.1 |
| 20260904211349 | 37 | 199 | 8.0 | 11.3 | 0.00 | 0.00 | 0.00 | 35 | 1013.0 |
| 20260904210844 | 37 | 98 | 6.4 | 6.4 | 0.00 | 0.00 | 0.00 | 36 | 1013.1 |
| 20260904210343 | 36 | 255 | 3.2 | 4.8 | 0.00 | 0.00 | 0.00 | 37 | 1013.1 |
| 20260904205839 | 37 | 223 | 3.2 | 6.4 | 0.00 | 0.00 | 0.00 | 37 | 1013.3 |
| 20260904205335 | 37 | 229 | 9.7 | 12.9 | 0.00 | 0.00 | 0.00 | 36 | 1013.2 |
| 20260904204832 | 37 | 208 | 12.9 | 16.1 | 0.00 | 0.00 | 0.00 | 37 | 1013.4 |
| 20260904204327 | 37 | 130 | 6.4 | 8.0 | 0.00 | 0.00 | 0.00 | 38 | 1013.3 |
| 20260904203824 | 37 | 218 | 3.2 | 6.4 | 0.00 | 0.00 | 0.00 | 38 | 1013.3 |
| 20260904203319 | 37 | 251 | 12.9 | 16.1 | 0.00 | 0.00 | 0.00 | 38 | 1013.3 |
| 20260904202815 | 37 | 186 | 6.4 | 8.0 | 0.00 | 0.00 | 0.00 | 38 | 1013.4 |
| 20260904202311 | 37 | 238 | 6.4 | 8.0 | 0.00 | 0.00 | 0.00 | 39 | 1013.5 |
| 20260904201807 | 37 | 191 | 12.9 | 17.7 | 0.00 | 0.00 | 0.00 | 38 | 1013.6 |
| 20260904201301 | 37 | 193 | 9.7 | 11.3 | 0.00 | 0.00 | 0.00 | 39 | 1013.6 |
| 20260904200756 | 38 | 260 | 6.4 | 6.4 | 0.00 | 0.00 | 0.00 | 37 | 1013.9 |
| 20260904200255 | 37 | 215 | 3.2 | 4.8 | 0.00 | 0.00 | 0.00 | 38 | 1013.7 |
| 20260904195755 | 36 | 240 | 4.8 | 6.4 | 0.00 | 0.00 | 0.00 | 40 | 1014.0 |
| 20260904195254 | 36 | 219 | 11.3 | 16.1 | 0.00 | 0.00 | 0.00 | 40 | 1014.0 |
| 20260904194748 | 37 | 246 | 3.2 | 4.8 | 0.00 | 0.00 | 0.00 | 39 | 1013.8 |
| 20260904194247 | 37 | 197 | 9.7 | 12.9 | 0.00 | 0.00 | 0.00 | 39 | 1014.0 |
| 20260904193743 | 36 | 147 | 6.4 | 6.4 | 0.00 | 0.00 | 0.00 | 40 | 1014.3 |
| 20260904193239 | 36 | 352 | 6.4 | 8.0 | 0.00 | 0.00 | 0.00 | 41 | 1013.9 |
| 20260904192734 | 36 | 109 | 6.4 | 8.0 | 0.00 | 0.00 | 0.00 | 43 | 1014.1 |
| 20260904192229 | 36 | 223 | 8.0 | 8.0 | 0.00 | 0.00 | 0.00 | 42 | 1014.2 |
| 20260904191726 | 36 | 185 | 4.8 | 6.4 | 0.00 | 0.00 | 0.00 | 42 | 1014.3 |
| 20260904191222 | 36 | 90 | 3.2 | 6.4 | 0.00 | 0.00 | 0.00 | 42 | 1014.2 |
| 20260904190718 | 36 | 210 | 9.7 | 12.9 | 0.00 | 0.00 | 0.00 | 41 | 1014.4 |
| 20260904190214 | 37 | 109 | 4.8 | 6.4 | 0.00 | 0.00 | 0.00 | 40 | 1014.5 |
| 20260904185710 | 36 | 197 | 3.2 | 6.4 | 0.00 | 0.00 | 0.00 | 42 | 1014.4 |
| 20260904185205 | 36 | 217 | 6.4 | 8.0 | 0.00 | 0.00 | 0.00 | 42 | 1014.8 |
| 20260904184703 | 36 | 196 | 4.8 | 6.4 | 0.00 | 0.00 | 0.00 | 42 | 1014.7 |
| 20260904184159 | 36 | 229 | 0.0 | 1.6 | 0.00 | 0.00 | 0.00 | 41 | 1014.8 |
| 20260904183655 | 36 | 211 | 9.7 | 11.3 | 0.00 | 0.00 | 0.00 | 43 | 1014.9 |
| 20260904183154 | 35 | 200 | 9.7 | 12.9 | 0.00 | 0.00 | 0.00 | 43 | 1015.1 |
| 20260904182650 | 36 | 87 | 8.0 | 12.9 | 0.00 | 0.00 | 0.00 | 44 | 1015.2 |
| 20260904182145 | 36 | 195 | 3.2 | 4.8 | 0.00 | 0.00 | 0.00 | 42 | 1015.0 |
| 20260904181642 | 36 | 259 | 6.4 | 6.4 | 0.00 | 0.00 | 0.00 | 42 | 1015.0 |
| 20260904181141 | 35 | 219 | 3.2 | 4.8 | 0.00 | 0.00 | 0.00 | 42 | 1015.1 |
| 20260904180637 | 35 | 90 | 3.2 | 4.8 | 0.00 | 0.00 | 0.00 | 46 | 1015.1 |
| 20260904180132 | 35 | 174 | 6.4 | 11.3 | 0.00 | 0.00 | 0.00 | 44 | 1015.2 |
| 20260904175631 | 35 | 204 | 6.4 | 8.0 | 0.00 | 0.00 | 0.00 | 43 | 1015.3 |
| 20260904175129 | 35 | 202 | 11.3 | 16.1 | 0.00 | 0.00 | 0.00 | 44 | 1015.3 |
| 20260904174629 | 35 | 227 | 6.4 | 8.0 | 0.00 | 0.00 | 0.00 | 46 | 1015.2 |
| 20260904174126 | 35 | 329 | 4.8 | 8.0 | 0.00 | 0.00 | 0.00 | 45 | 1015.4 |
| 20260904173621 | 35 | 242 | 4.8 | 8.0 | 0.00 | 0.00 | 0.00 | 45 | 1015.5 |
| 20260904173116 | 34 | 215 | 4.8 | 6.4 | 0.00 | 0.00 | 0.00 | 46 | 1015.6 |
| 20260904172613 | 34 | 190 | 12.9 | 16.1 | 0.00 | 0.00 | 0.00 | 47 | 1015.6 |
| 20260904172112 | 35 | 201 | 8.0 | 11.3 | 0.00 | 0.00 | 0.00 | 47 | 1015.7 |
| 20260904171607 | 34 | 175 | 4.8 | 6.4 | 0.00 | 0.00 | 0.00 | 49 | 1015.7 |
| 20260904171102 | 33 | 152 | 8.0 | 11.3 | 0.00 | 0.00 | 0.00 | 48 | 1015.8 |
| 20260904170558 | 33 | 194 | 8.0 | 16.1 | 0.00 | 0.00 | 0.00 | 48 | 1015.7 |
| 20260904170054 | 34 | 233 | 3.2 | 4.8 | 0.00 | 0.00 | 0.00 | 50 | 1015.8 |
| 20260904165552 | 33 | 215 | 3.2 | 4.8 | 0.00 | 0.00 | 0.00 | 49 | 1015.8 |
| 20260904165052 | 35 | 173 | 3.2 | 8.0 | 0.00 | 0.00 | 0.00 | 48 | 1016.1 |
| 20260904164547 | 34 | 227 | 8.0 | 11.3 | 0.00 | 0.00 | 0.00 | 48 | 1015.9 |
| 20260904164043 | 33 | 101 | 4.8 | 6.4 | 0.00 | 0.00 | 0.00 | 50 | 1015.9 |
| 20260904163543 | 33 | 168 | 8.0 | 11.3 | 0.00 | 0.00 | 0.00 | 51 | 1015.9 |
| 20260904163038 | 34 | 209 | 8.0 | 8.0 | 0.00 | 0.00 | 0.00 | 48 | 1016.2 |
| 20260904162532 | 34 | 134 | 4.8 | 6.4 | 0.00 | 0.00 | 0.00 | 50 | 1016.1 |
| 20260904162028 | 33 | 215 | 8.0 | 11.3 | 0.00 | 0.00 | 0.00 | 52 | 1016.1 |
| 20260904161528 | 33 | 252 | 3.2 | 4.8 | 0.00 | 0.00 | 0.00 | 52 | 1016.1 |
| 20260904161024 | 33 | 101 | 6.4 | 6.4 | 0.00 | 0.00 | 0.00 | 52 | 1016.1 |
| 20260904160518 | 33 | 230 | 0.0 | 1.6 | 0.00 | 0.00 | 0.00 | 53 | 1015.9 |
| 20260904160015 | 32 | 218 | 3.2 | 4.8 | 0.00 | 0.00 | 0.00 | 56 | 1016.1 |
| 20260904155514 | 32 | 267 | 3.2 | 4.8 | 0.00 | 0.00 | 0.00 | 57 | 1015.9 |
| 20260904155014 | 32 | 235 | 6.4 | 8.0 | 0.00 | 0.00 | 0.00 | 55 | 1016.2 |
| 20260904154508 | 32 | 240 | 1.6 | 1.6 | 0.00 | 0.00 | 0.00 | 56 | 1016.2 |
| 20260904154002 | 32 | 192 | 1.6 | 1.6 | 0.00 | 0.00 | 0.00 | 57 | 1016.2 |
| 20260904153457 | 32 | 247 | 1.6 | 1.6 | 0.00 | 0.00 | 0.00 | 57 | 1016.3 |
| 20260904152954 | 32 | 181 | 6.4 | 8.0 | 0.00 | 0.00 | 0.00 | 58 | 1016.3 |
| 20260904152450 | 31 | 231 | 1.6 | 1.6 | 0.00 | 0.00 | 0.00 | 59 | 1016.1 |
| 20260904151949 | 31 | 197 | 4.8 | 6.4 | 0.00 | 0.00 | 0.00 | 59 | 1016.3 |
| 20260904151445 | 31 | 244 | 1.6 | 1.6 | 0.00 | 0.00 | 0.00 | 60 | 1016.3 |
| 20260904150944 | 31 | 188 | 1.6 | 1.6 | 0.00 | 0.00 | 0.00 | 61 | 1016.2 |
| 20260904150439 | 30 | 213 | 8.0 | 11.3 | 0.00 | 0.00 | 0.00 | 62 | 1016.3 |
| 20260904145937 | 30 | 246 | 3.2 | 6.4 | 0.00 | 0.00 | 0.00 | 63 | 1016.1 |
| 20260904145434 | 30 | 189 | 6.4 | 11.3 | 0.00 | 0.00 | 0.00 | 62 | 1016.3 |
| 20260904144929 | 30 | 237 | 4.8 | 8.0 | 0.00 | 0.00 | 0.00 | 63 | 1016.4 |
| 20260904144424 | 30 | 113 | 3.2 | 4.8 | 0.00 | 0.00 | 0.00 | 64 | 1016.2 |
| 20260904143920 | 30 | 317 | 3.2 | 4.8 | 0.00 | 0.00 | 0.00 | 64 | 1016.2 |
| 20260904143416 | 29 | 352 | 3.2 | 6.4 | 0.00 | 0.00 | 0.00 | 66 | 1016.1 |
| 20260904142913 | 29 | 172 | 4.8 | 6.4 | 0.00 | 0.00 | 0.00 | 66 | 1016.4 |
| 20260904142409 | 29 | 167 | 3.2 | 4.8 | 0.00 | 0.00 | 0.00 | 66 | 1016.5 |
| 20260904141908 | 29 | 224 | 4.8 | 6.4 | 0.00 | 0.00 | 0.00 | 64 | 1016.5 |
| 20260904141404 | 28 | 187 | 1.6 | 4.8 | 0.00 | 0.00 | 0.00 | 67 | 1016.4 |
| 20260904140901 | 28 | 171 | 1.6 | 1.6 | 0.00 | 0.00 | 0.00 | 68 | 1016.3 |
| 20260904140400 | 28 | 178 | 4.8 | 6.4 | 0.00 | 0.00 | 0.00 | 66 | 1016.3 |
| 20260904135900 | 28 | 195 | 3.2 | 4.8 | 0.00 | 0.00 | 0.00 | 65 | 1016.3 |
| 20260904135354 | 28 | 224 | 1.6 | 1.6 | 0.00 | 0.00 | 0.00 | 67 | 1016.2 |
| 20260904134851 | 28 | 186 | 3.2 | 4.8 | 0.00 | 0.00 | 0.00 | 65 | 1016.3 |
| 20260904134351 | 28 | 183 | 0.0 | 0.0 | 0.00 | 0.00 | 0.00 | 66 | 1016.2 |
| 20260904133850 | 28 | 192 | 0.0 | 0.0 | 0.00 | 0.00 | 0.00 | 68 | 1016.1 |
| 20260904133346 | 26 | 148 | 0.0 | 0.0 | 0.00 | 0.00 | 0.00 | 72 | 1016.2 |
| 20260904132846 | 26 | 213 | 0.0 | 0.0 | 0.00 | 0.00 | 0.00 | 74 | 1016.3 |
| 20260904132341 | 26 | 250 | 0.0 | 0.0 | 0.00 | 0.00 | 0.00 | 75 | 1016.2 |
| 20260904131841 | 25 | 244 | 0.0 | 0.0 | 0.00 | 0.00 | 0.00 | 78 | 1016.4 |
| 20260904131337 | 25 | 241 | 0.0 | 0.0 | 0.00 | 0.00 | 0.00 | 81 | 1016.1 |
| 20260904130837 | 23 | 241 | 0.0 | 0.0 | 0.00 | 0.00 | 0.00 | 86 | 1016.1 |
| 20260904130336 | 22 | 254 | 0.0 | 0.0 | 0.00 | 0.00 | 0.00 | 90 | 1016.1 |
| 20260904125832 | 21 | 234 | 0.0 | 0.0 | 0.00 | 0.00 | 0.00 | 93 | 1015.9 |
| 20260904125328 | 21 | 273 | 0.0 | 0.0 | 0.00 | 0.00 | 0.00 | 95 | 1015.8 |
| 20260904124827 | 20 | 293 | 0.0 | 0.0 | 0.00 | 0.00 | 0.00 | 95 | 1015.8 |
| 20260904124324 | 20 | 293 | 0.0 | 0.0 | 0.00 | 0.00 | 0.00 | 96 | 1015.8 |
| 20260904123819 | 20 | 278 | 0.0 | 0.0 | 0.00 | 0.00 | 0.00 | 96 | 1015.8 |
| 20260904123314 | 20 | 260 | 0.0 | 0.0 | 0.00 | 0.00 | 0.00 | 96 | 1015.9 |
| 20260904122809 | 20 | 243 | 0.0 | 0.0 | 0.00 | 0.00 | 0.00 | 96 | 1015.8 |
| 20260904122308 | 20 | 291 | 0.0 | 0.0 | 0.00 | 0.00 | 0.00 | 96 | 1015.7 |
| 20260904121803 | 20 | 98 | 0.0 | 0.0 | 0.00 | 0.00 | 0.00 | 96 | 1015.8 |
| 20260904121259 | 20 | 268 | 0.0 | 0.0 | 0.00 | 0.00 | 0.00 | 96 | 1015.6 |
| 20260904120756 | 20 | 257 | 0.0 | 0.0 | 0.00 | 0.00 | 0.00 | 96 | 1015.9 |
| 20260904120251 | 20 | 280 | 0.0 | 0.0 | 0.00 | 0.00 | 0.00 | 95 | 1015.6 |
| 20260904115746 | 20 | 269 | 0.0 | 0.0 | 0.00 | 0.00 | 0.00 | 95 | 1015.5 |
| 20260904115242 | 20 | 277 | 0.0 | 0.0 | 0.00 | 0.00 | 0.00 | 95 | 1015.7 |
| 20260904114736 | 20 | 277 | 0.0 | 0.0 | 0.00 | 0.00 | 0.00 | 95 | 1015.5 |
| 20260904114236 | 20 | 242 | 0.0 | 0.0 | 0.00 | 0.00 | 0.00 | 95 | 1015.5 |
| 20260904113731 | 20 | 274 | 0.0 | 0.0 | 0.00 | 0.00 | 0.00 | 95 | 1015.5 |
| 20260904113230 | 20 | 288 | 0.0 | 0.0 | 0.00 | 0.00 | 0.00 | 95 | 1015.4 |
| 20260904112725 | 20 | 279 | 0.0 | 0.0 | 0.00 | 0.00 | 0.00 | 95 | 1015.4 |
| 20260904112221 | 20 | 283 | 0.0 | 0.0 | 0.00 | 0.00 | 0.00 | 95 | 1015.3 |
| 20260904111716 | 20 | 268 | 0.0 | 0.0 | 0.00 | 0.00 | 0.00 | 95 | 1015.3 |
| 20260904111212 | 20 | 289 | 0.0 | 0.0 | 0.00 | 0.00 | 0.00 | 95 | 1015.1 |
| 20260904110708 | 20 | 284 | 0.0 | 0.0 | 0.00 | 0.00 | 0.00 | 95 | 1014.9 |
| 20260904110206 | 20 | 275 | 0.0 | 0.0 | 0.00 | 0.00 | 0.00 | 95 | 1015.1 |
| 20260904105701 | 20 | 266 | 0.0 | 0.0 | 0.00 | 0.00 | 0.00 | 95 | 1015.2 |
| 20260904105156 | 20 | 266 | 0.0 | 0.0 | 0.00 | 0.00 | 0.00 | 94 | 1015.1 |
| 20260904104652 | 20 | 267 | 0.0 | 0.0 | 0.00 | 0.00 | 0.00 | 94 | 1014.9 |
| 20260904104147 | 20 | 278 | 0.0 | 0.0 | 0.00 | 0.00 | 0.00 | 94 | 1015.1 |
| 20260904103644 | 20 | 236 | 0.0 | 0.0 | 0.00 | 0.00 | 0.00 | 94 | 1015.0 |
| 20260904103139 | 20 | 260 | 0.0 | 0.0 | 0.00 | 0.00 | 0.00 | 93 | 1015.0 |
| 20260904102635 | 20 | 260 | 0.0 | 0.0 | 0.00 | 0.00 | 0.00 | 93 | 1015.1 |
| 20260904102129 | 20 | 251 | 0.0 | 0.0 | 0.00 | 0.00 | 0.00 | 93 | 1015.1 |
| 20260904101627 | 20 | 292 | 0.0 | 0.0 | 0.00 | 0.00 | 0.00 | 93 | 1014.8 |
| 20260904101122 | 20 | 315 | 0.0 | 0.0 | 0.00 | 0.00 | 0.00 | 93 | 1014.9 |
| 20260904100618 | 20 | 287 | 0.0 | 0.0 | 0.00 | 0.00 | 0.00 | 94 | 1015.0 |
| 20260904100112 | 20 | 288 | 0.0 | 0.0 | 0.00 | 0.00 | 0.00 | 94 | 1014.9 |
| 20260904095607 | 20 | 291 | 0.0 | 0.0 | 0.00 | 0.00 | 0.00 | 94 | 1014.6 |
| 20260904095102 | 20 | 256 | 0.0 | 0.0 | 0.00 | 0.00 | 0.00 | 94 | 1014.8 |
| 20260904094602 | 20 | 256 | 0.0 | 0.0 | 0.00 | 0.00 | 0.00 | 94 | 1014.7 |
| 20260904094057 | 20 | 240 | 0.0 | 0.0 | 0.00 | 0.00 | 0.00 | 94 | 1014.6 |
| 20260904093555 | 20 | 248 | 0.0 | 0.0 | 0.00 | 0.00 | 0.00 | 94 | 1014.5 |
| 20260904093054 | 20 | 246 | 0.0 | 0.0 | 0.00 | 0.00 | 0.00 | 93 | 1014.6 |
| 20260904092550 | 20 | 252 | 0.0 | 0.0 | 0.00 | 0.00 | 0.00 | 93 | 1014.5 |
| 20260904092047 | 20 | 284 | 0.0 | 0.0 | 0.00 | 0.00 | 0.00 | 93 | 1014.5 |
| 20260904091543 | 20 | 264 | 0.0 | 0.0 | 0.00 | 0.00 | 0.00 | 93 | 1014.5 |
| 20260904091042 | 20 | 258 | 0.0 | 0.0 | 0.00 | 0.00 | 0.00 | 92 | 1014.4 |
| 20260904090537 | 20 | 256 | 0.0 | 0.0 | 0.00 | 0.00 | 0.00 | 92 | 1014.4 |
| 20260904090033 | 20 | 287 | 0.0 | 0.0 | 0.00 | 0.00 | 0.00 | 92 | 1014.4 |
| 20260904085528 | 20 | 274 | 0.0 | 0.0 | 0.00 | 0.00 | 0.00 | 92 | 1014.2 |
| 20260904085028 | 20 | 313 | 0.0 | 0.0 | 0.00 | 0.00 | 0.00 | 92 | 1014.2 |
| 20260904084524 | 20 | 264 | 0.0 | 0.0 | 0.00 | 0.00 | 0.00 | 92 | 1014.2 |
| 20260904084020 | 21 | 231 | 0.0 | 0.0 | 0.00 | 0.00 | 0.00 | 92 | 1014.4 |
| 20260904083516 | 21 | 297 | 0.0 | 0.0 | 0.00 | 0.00 | 0.00 | 92 | 1014.2 |
| 20260904083011 | 21 | 263 | 0.0 | 0.0 | 0.00 | 0.00 | 0.00 | 91 | 1014.1 |
| 20260904082506 | 21 | 283 | 0.0 | 0.0 | 0.00 | 0.00 | 0.00 | 91 | 1014.1 |
| 20260904082001 | 21 | 282 | 0.0 | 0.0 | 0.00 | 0.00 | 0.00 | 91 | 1014.2 |
| 20260904081456 | 21 | 279 | 0.0 | 0.0 | 0.00 | 0.00 | 0.00 | 92 | 1014.3 |
| 20260904080952 | 21 | 284 | 0.0 | 0.0 | 0.00 | 0.00 | 0.00 | 92 | 1014.4 |
| 20260904080447 | 21 | 273 | 0.0 | 0.0 | 0.00 | 0.00 | 0.00 | 92 | 1014.1 |
| 20260904075943 | 21 | 274 | 0.0 | 0.0 | 0.00 | 0.00 | 0.00 | 92 | 1014.1 |
| 20260904075439 | 21 | 253 | 0.0 | 0.0 | 0.00 | 0.00 | 0.00 | 91 | 1014.1 |
| 20260904074938 | 21 | 254 | 0.0 | 0.0 | 0.00 | 0.00 | 0.00 | 91 | 1014.2 |
| 20260904074433 | 21 | 251 | 0.0 | 0.0 | 0.00 | 0.00 | 0.00 | 91 | 1014.3 |
| 20260904073928 | 21 | 270 | 0.0 | 0.0 | 0.00 | 0.00 | 0.00 | 91 | 1014.3 |
| 20260904073424 | 21 | 263 | 0.0 | 0.0 | 0.00 | 0.00 | 0.00 | 91 | 1014.3 |
| 20260904072919 | 21 | 252 | 0.0 | 0.0 | 0.00 | 0.00 | 0.00 | 90 | 1014.4 |
| 20260904072414 | 21 | 228 | 0.0 | 0.0 | 0.00 | 0.00 | 0.00 | 90 | 1014.4 |
| 20260904071910 | 21 | 286 | 0.0 | 0.0 | 0.00 | 0.00 | 0.00 | 90 | 1014.2 |
| 20260904071405 | 21 | 283 | 0.0 | 0.0 | 0.00 | 0.00 | 0.00 | 91 | 1014.1 |
| 20260904070859 | 21 | 257 | 0.0 | 0.0 | 0.00 | 0.00 | 0.00 | 91 | 1014.3 |
| 20260904070358 | 21 | 254 | 0.0 | 0.0 | 0.00 | 0.00 | 0.00 | 90 | 1014.3 |
| 20260904065853 | 21 | 251 | 0.0 | 0.0 | 0.00 | 0.00 | 0.00 | 90 | 1014.3 |
| 20260904065350 | 21 | 257 | 0.0 | 0.0 | 0.00 | 0.00 | 0.00 | 89 | 1014.5 |
| 20260904064849 | 21 | 244 | 0.0 | 0.0 | 0.00 | 0.00 | 0.00 | 89 | 1014.3 |
| 20260904064346 | 21 | 272 | 0.0 | 0.0 | 0.00 | 0.00 | 0.00 | 89 | 1014.3 |
| 20260904063841 | 21 | 246 | 0.0 | 0.0 | 0.00 | 0.00 | 0.00 | 89 | 1014.4 |
| 20260904063337 | 21 | 308 | 0.0 | 0.0 | 0.00 | 0.00 | 0.00 | 89 | 1014.3 |
| 20260904062837 | 21 | 306 | 0.0 | 0.0 | 0.00 | 0.00 | 0.00 | 89 | 1014.2 |
| 20260904062334 | 22 | 264 | 0.0 | 0.0 | 0.00 | 0.00 | 0.00 | 88 | 1014.3 |
| 20260904061829 | 22 | 272 | 0.0 | 0.0 | 0.00 | 0.00 | 0.00 | 87 | 1014.2 |
| 20260904061325 | 22 | 277 | 0.0 | 0.0 | 0.00 | 0.00 | 0.00 | 87 | 1014.0 |
| 20260904060821 | 22 | 272 | 0.0 | 0.0 | 0.00 | 0.00 | 0.00 | 87 | 1014.2 |
| 20260904060317 | 22 | 281 | 0.0 | 0.0 | 0.00 | 0.00 | 0.00 | 87 | 1014.2 |
| 20260904055812 | 22 | 276 | 0.0 | 0.0 | 0.00 | 0.00 | 0.00 | 87 | 1014.3 |
| 20260904055308 | 22 | 274 | 0.0 | 0.0 | 0.00 | 0.00 | 0.00 | 87 | 1014.2 |
| 20260904054803 | 22 | 279 | 0.0 | 0.0 | 0.00 | 0.00 | 0.00 | 87 | 1014.3 |
| 20260904054259 | 22 | 284 | 0.0 | 0.0 | 0.00 | 0.00 | 0.00 | 87 | 1014.2 |
| 20260904053754 | 22 | 261 | 0.0 | 0.0 | 0.00 | 0.00 | 0.00 | 87 | 1014.1 |
| 20260904053253 | 22 | 262 | 0.0 | 0.0 | 0.00 | 0.00 | 0.00 | 87 | 1014.1 |
| 20260904052750 | 22 | 263 | 0.0 | 0.0 | 0.00 | 0.00 | 0.00 | 86 | 1014.2 |
| 20260904052245 | 22 | 263 | 0.0 | 0.0 | 0.00 | 0.00 | 0.00 | 86 | 1014.0 |
| 20260904051742 | 22 | 261 | 0.0 | 0.0 | 0.00 | 0.00 | 0.00 | 85 | 1014.2 |